ABD239 LCLK-LCPH

Flight info

Callsign ABD239
Flight time 0h 14m
Altitude 12000
Route LK403 DCT GIPRO DCT D283C DCT CI29
Aircraft B742/H-SDFHIRWXY/L

Departure

Time 2026-04-23 20:26
Airport Larnaca International Airport (LCLK)

Arrival

Time 2026-04-23 20:41
Airport Paphos International Airport (LCPH)
Time Latitude Longitude Altitude Speed Heading
2026-04-23 20:07 34.86840 33.61142 29 ft 0 kts 314°
2026-04-23 20:14 34.86837 33.61145 29 ft 2 kts 315°
2026-04-23 20:14 34.86825 33.61157 28 ft 2 kts 335°
2026-04-23 20:14 34.86811 33.61163 28 ft 2 kts 349°
2026-04-23 20:15 34.86796 33.61164 27 ft 2 kts
2026-04-23 20:15 34.86781 33.61161 27 ft 2 kts 19°
2026-04-23 20:15 34.86767 33.61153 27 ft 2 kts 34°
2026-04-23 20:15 34.86756 33.61142 27 ft 1 kts 48°
2026-04-23 20:16 34.86753 33.61138 27 ft 0 kts 49°
2026-04-23 20:20 34.86758 33.61145 27 ft 5 kts 48°
2026-04-23 20:21 34.86826 33.61235 25 ft 23 kts 48°
2026-04-23 20:21 34.86949 33.61388 22 ft 26 kts 42°
2026-04-23 20:21 34.87089 33.61550 18 ft 28 kts 43°
2026-04-23 20:21 34.87237 33.61727 14 ft 30 kts 44°
2026-04-23 20:22 34.87371 33.61890 12 ft 24 kts 44°
2026-04-23 20:22 34.87488 33.62044 12 ft 24 kts 58°
2026-04-23 20:22 34.87538 33.62234 12 ft 23 kts 54°
2026-04-23 20:22 34.87657 33.62374 12 ft 23 kts 43°
2026-04-23 20:23 34.87746 33.62487 12 ft 23 kts 47°
2026-04-23 20:23 34.87854 33.62622 15 ft 22 kts 46°
2026-04-23 20:23 34.87958 33.62752 17 ft 21 kts 45°
2026-04-23 20:24 34.88060 33.62875 19 ft 20 kts 45°
2026-04-23 20:24 34.88160 33.62996 18 ft 20 kts 45°
2026-04-23 20:24 34.88267 33.63123 17 ft 21 kts 44°
2026-04-23 20:24 34.88371 33.63256 16 ft 21 kts 46°
2026-04-23 20:25 34.88422 33.63413 15 ft 21 kts 115°
2026-04-23 20:25 34.88339 33.63545 14 ft 19 kts 181°
2026-04-23 20:25 34.88266 33.63471 14 ft 9 kts 217°
2026-04-23 20:25 34.88216 33.63423 15 ft 8 kts 225°
2026-04-23 20:26 34.88083 33.63260 15 ft 71 kts 225°
2026-04-23 20:26 34.87475 33.62518 53 ft 167 kts 226°
2026-04-23 20:26 34.86585 33.61436 848 ft 197 kts 227°
2026-04-23 20:26 34.85542 33.60147 1674 ft 234 kts 227°
2026-04-23 20:27 34.84432 33.58786 2451 ft 228 kts 226°
2026-04-23 20:27 34.83317 33.57424 3253 ft 226 kts 226°
2026-04-23 20:27 34.82207 33.56069 3824 ft 232 kts 226°
2026-04-23 20:27 34.81044 33.54651 4306 ft 245 kts 226°
2026-04-23 20:28 34.79803 33.53129 4793 ft 260 kts 229°
2026-04-23 20:28 34.78857 33.51218 5302 ft 272 kts 250°
2026-04-23 20:28 34.78246 33.48991 5868 ft 286 kts 253°
2026-04-23 20:28 34.77635 33.46655 6602 ft 294 kts 253°
2026-04-23 20:29 34.77001 33.44294 7366 ft 302 kts 253°
2026-04-23 20:29 34.76340 33.41875 8185 ft 306 kts 252°
2026-04-23 20:29 34.75663 33.39413 9114 ft 307 kts 252°
2026-04-23 20:29 34.74995 33.36994 10055 ft 307 kts 252°
2026-04-23 20:30 34.74311 33.34522 10728 ft 315 kts 251°
2026-04-23 20:30 34.72792 33.29158 11352 ft 358 kts 251°
2026-04-23 20:30 34.71951 33.26161 11431 ft 387 kts 251°
2026-04-23 20:31 34.71059 33.22971 11653 ft 410 kts 251°
2026-04-23 20:31 34.70121 33.19610 11908 ft 431 kts 251°
2026-04-23 20:31 34.69136 33.16092 11985 ft 445 kts 251°
2026-04-23 20:31 34.67951 33.12720 11986 ft 421 kts 245°
2026-04-23 20:32 34.66656 33.09649 11584 ft 390 kts 243°
2026-04-23 20:32 34.65417 33.06869 11125 ft 360 kts 242°
2026-04-23 20:32 34.64262 33.04290 10665 ft 337 kts 243°
2026-04-23 20:32 34.63190 33.01868 10123 ft 321 kts 243°
2026-04-23 20:33 34.62164 32.99524 9487 ft 310 kts 243°
2026-04-23 20:33 34.61179 32.97251 8849 ft 300 kts 245°
2026-04-23 20:33 34.60529 32.94885 8151 ft 293 kts 263°
2026-04-23 20:33 34.60579 32.92461 7450 ft 287 kts 281°
2026-04-23 20:34 34.61041 32.90141 6756 ft 284 kts 284°
2026-04-23 20:34 34.61565 32.87829 6018 ft 283 kts 285°
2026-04-23 20:34 34.62075 32.85561 5287 ft 282 kts 284°
2026-04-23 20:34 34.62582 32.83263 4544 ft 281 kts 284°
2026-04-23 20:35 34.63074 32.80996 3804 ft 279 kts 281°
2026-04-23 20:35 34.63099 32.78672 3100 ft 273 kts 268°
2026-04-23 20:35 34.63359 32.76463 2729 ft 258 kts 285°
2026-04-23 20:35 34.63856 32.74421 2364 ft 247 kts 289°
2026-04-23 20:36 34.64413 32.72515 2165 ft 232 kts 291°
2026-04-23 20:36 34.64983 32.70724 2120 ft 223 kts 292°
2026-04-23 20:36 34.65542 32.68984 2125 ft 215 kts 291°
2026-04-23 20:36 34.66049 32.67373 2101 ft 190 kts 291°
2026-04-23 20:37 34.66486 32.65961 2105 ft 165 kts 290°
2026-04-23 20:37 34.66861 32.64733 2094 ft 146 kts 289°
2026-04-23 20:37 34.67207 32.63599 2099 ft 141 kts 289°
2026-04-23 20:37 34.67545 32.62486 2101 ft 140 kts 289°
2026-04-23 20:38 34.67884 32.61371 1944 ft 140 kts 290°
2026-04-23 20:38 34.68214 32.60289 1847 ft 136 kts 291°
2026-04-23 20:38 34.68550 32.59187 1683 ft 137 kts 291°
2026-04-23 20:38 34.68885 32.58089 1485 ft 138 kts 291°
2026-04-23 20:39 34.69214 32.57015 1280 ft 136 kts 291°
2026-04-23 20:39 34.69542 32.55938 1103 ft 135 kts 291°
2026-04-23 20:39 34.69871 32.54859 929 ft 136 kts 291°
2026-04-23 20:39 34.70207 32.53767 751 ft 140 kts 292°
2026-04-23 20:40 34.70553 32.52649 580 ft 141 kts 289°
2026-04-23 20:40 34.70882 32.51552 370 ft 136 kts 293°
2026-04-23 20:40 34.71201 32.50481 172 ft 133 kts 292°
2026-04-23 20:40 34.71519 32.49442 46 ft 127 kts 292°
2026-04-23 20:41 34.71704 32.48844 42 ft 0 kts 290°